Lid_Strength_Index
-1 -1 -1 -1 -1 -1 -1 -1 -1 -1 -1 -1 -1 -1 -1 -1 -1 -1 -1 -1 -1 -1 -1 -1 -1 -1 0 5 5 0 -2 -1 -1 0 2 3 5 6 10 9 7 8 8 9 10 10 10
-0 -1 -1 -1 -1 -1 -1 -1 -1 -1 -1 -1 -1 -1 -1 -1 -1 -1 -1 -1 -1 -1 -1 -1 -1 -1 2 9 -0 -1 -1 -0 0 1 2 3 4 4 7 9 9 7 7 9 10 9 10
-0 -1 -0 -1 -1 -1 -1 -1 -1 -1 -1 -1 -1 -1 -1 -1 -1 -1 -1 -1 -1 -1 -1 -1 -1 0 4 5 -1 -1 0 1 0 1 3 2 2 4 5 8 7 6 7 7 9 8 9
-0 -0 -1 -0 -1 -1 -1 -1 -1 -1 -1 -1 -1 -1 -1 -1 -1 -1 -1 -1 -1 -1 -1 -1 -1 1 7 -0 -1 0 -0 1 0 0 1 1 2 5 6 6 7 9 8 11 7 8 8
1 -0 -0 -0 -1 -0 -1 -1 -1 -1 -1 -1 -1 -1 -1 -1 -1 -1 -1 -1 -1 -1 -1 -1 1 3 7 1 3 0 0 3 2 1 1 1 2 6 7 9 10 9 13 11 9 6 8
0 -0 -0 -0 -0 -0 -0 -1 -1 -1 -1 -1 -1 -1 -1 -1 -1 -1 -1 -1 -1 -1 -0 -0 1 6 4 6 2 1 0 1 3 3 4 5 6 8 9 11 16 13 13 11 11 8 8
1 -0 -0 -0 -0 -0 -0 -0 -1 -1 -1 -1 -1 -1 -1 -1 -1 -1 -0 1 5 6 4 6 6 6 5 2 1 3 1 3 4 5 10 7 10 13 11 10 9 10 11 12 10 9 9
1 -0 -0 -0 -0 -0 -0 -0 -0 -1 -1 -1 -1 -1 -1 -1 -1 -1 -0 4 3 2 8 4 4 4 3 3 7 4 2 7 8 11 8 10 13 8 7 8 10 11 12 12 10 9 9
1 -0 -0 -0 -0 -0 -0 -0 -0 -1 -1 -1 -1 -1 -1 -1 -1 0 2 2 -0 0 8 6 5 5 5 4 7 7 4 6 9 10 10 11 10 7 8 10 11 11 12 11 12 10 10
-0 -0 -0 -0 -0 -0 -0 -0 -0 -0 -0 -1 -1 -1 -1 -1 1 1 3 0 -1 0 12 9 8 6 5 5 9 4 3 6 8 11 9 10 7 9 10 11 10 13 9 10 11 12 16
0 -0 -0 -0 -0 -0 -0 -0 -0 -0 -0 -0 -1 -1 -1 -1 1 3 1 -0 -0 2 20 9 8 2 4 8 7 7 3 6 10 9 9 12 9 10 11 10 9 12 9 10 11 13 14
-0 -0 -0 -0 -0 -0 -0 -0 -0 -0 -0 -1 -1 -1 -1 0 0 0 -1 -0 2 13 19 13 9 9 10 8 8 7 7 5 6 9 8 10 7 8 9 8 8 8 11 11 13 14 19
-0 -0 -0 -0 -0 -0 -0 -0 -0 -0 -0 -1 -1 -1 -0 -0 3 -1 -0 3 13 18 11 14 12 10 11 11 10 10 11 11 13 15 15 11 11 8 7 10 9 10 13 19 20 20 20
-0 -0 -0 -0 -0 -0 -0 -0 -0 -0 -0 -1 -1 -1 -0 -0 -1 -1 2 9 16 12 13 10 11 10 13 11 11 11 12 13 10 10 13 16 18 11 8 10 12 12 12 16 20 19 16
-0 -0 -0 -0 -0 -0 -0 -0 -0 -0 -0 -1 -1 1 1 0 -1 0 6 14 14 12 10 11 11 14 13 12 12 12 12 13 11 9 14 14 16 10 9 8 9 13 15 10 14 17 16
-0 -0 -0 -0 -0 -0 -0 -0 -0 -0 -0 -1 2 3 3 -1 -1 3 9 12 11 8 9 10 15 13 15 14 14 13 13 10 10 8 7 10 16 11 10 9 9 10 9 16 15 20 20
-0 -0 -0 -0 -0 -0 -0 -0 -0 -0 -0 -1 2 6 2 -1 0 6 12 10 9 8 9 11 13 14 13 14 13 13 13 11 8 8 7 8 12 14 11 13 14 12 13 12 12 14 18
-0 -0 -0 -0 -0 -0 -0 -0 -0 -0 -1 0 4 9 1 0 9 8 11 9 7 9 8 11 12 11 12 12 13 13 13 10 7 7 10 9 11 16 15 12 9 10 12 12 15 17 15
-0 -0 -0 -0 0 -0 -0 -0 -0 -0 -0 2 7 7 2 2 12 11 8 9 8 9 9 11 12 10 10 12 14 12 11 7 7 8 10 9 13 17 16 13 11 12 11 10 10 12 16
-0 -0 -0 -0 -0 -0 -0 -0 -0 -0 -1 1 6 10 7 6 6 8 10 10 10 7 9 10 12 12 11 12 10 12 11 8 7 7 8 8 11 13 17 15 13 15 13 11 11 15 14
-0 0 -0 -0 -0 -0 -0 -0 -0 -0 0 1 5 9 8 11 10 9 8 9 11 12 9 10 12 12 11 14 13 13 11 10 9 8 9 9 14 12 11 10 11 13 13 12 13 12 14
0 1 -0 -0 -0 -0 -0 -0 -0 -0 1 2 7 8 7 9 8 9 9 11 11 11 11 12 13 11 10 12 11 13 11 11 11 10 10 9 13 13 14 11 11 13 12 12 12 12 11
-0 0 1 -0 -0 -0 -0 -0 -0 -0 1 3 5 5 6 8 9 10 10 10 10 9 10 9 10 11 11 9 8 7 8 9 8 10 11 12 13 15 16 13 13 15 13 12 11 10 11
1 1 2 0 -0 -0 -0 -0 -0 0 2 2 4 3 8 11 10 10 9 8 9 9 11 10 9 10 8 6 7 8 9 9 9 9 9 12 13 14 16 15 19 12 10 9 11 10 9
1 2 1 1 -0 -0 -0 -0 0 1 1 1 2 3 6 10 9 9 9 9 8 9 10 11 9 8 6 9 13 14 14 14 14 10 10 10 11 15 17 16 13 13 12 11 11 11 8
0 1 2 2 1 1 -0 -0 -0 0 0 1 2 1 4 9 10 8 9 8 10 12 12 12 10 8 7 11 14 16 17 15 15 14 11 9 9 12 16 17 19 12 9 8 8 14 8
-1 0 1 1 1 0 -0 -0 0 1 1 1 2 1 3 8 8 8 9 10 8 9 11 12 12 11 9 13 14 15 16 13 16 16 15 13 13 15 16 17 14 10 11 7 14 12 9
-1 0 0 1 1 0 -0 -0 0 0 1 1 3 1 4 7 9 9 9 10 9 9 11 11 11 11 12 13 14 14 14 14 14 12 13 14 15 15 15 17 17 9 10 11 9 9 9
-1 -0 0 0 0 0 0 -0 0 1 1 1 4 2 2 6 9 7 8 9 10 11 11 10 11 11 10 12 12 13 14 14 14 16 11 14 11 14 12 13 8 9 8 8 8 8 8